Detroit Lakes, MN

6:33 PM CST on January 20, 2017 (GMT -0600)
Detroit Lakes

Weather History for KDTL - November, 2011

Change the Weather History Date:

Tuesday, November 22, 2011

  Actual Average Record
Temperature  
Mean Temperature 32 °F -  
Max Temperature 35 °F 30 °F 55 °F (2006)
Min Temperature 28 °F 15 °F -13 °F (1935)
Degree Days  
Heating Degree Days 34    
Moisture  
Dew Point 32 °F    
Average Humidity 94    
Maximum Humidity 100    
Minimum Humidity 87    
Precipitation  
Precipitation 0.00 in - - ()
Sea Level Pressure  
Sea Level Pressure 30.03 in    
Wind  
Wind Speed 11 mph (South)    
Max Wind Speed 17 mph    
Max Gust Speed 17 mph    
Visibility 4 miles    
Events      
Averages and records for this station are not official NWS values.
T = Trace of Precipitation, MM = Missing Value Source: NWS Daily Summary

Daily Weather History Graph

Daily Weather History Graph

Search for Another Location

Airport or City:

Trip Planner

Search our weather history database for the weather conditions in past years. The results will help you decide how hot, cold, wet, or windy it might be!

Date:

Astronomy

Nov. 22, 2011 Rise Set
Actual Time 7:35 AM CST 4:42 PM CST
Civil Twilight 7:02 AM CST 5:16 PM CST
Nautical Twilight 6:24 AM CST 5:53 PM CST
Astronomical Twilight 5:48 AM CST 6:30 PM CST
Moon 4:20 AM CST (11/22) 2:48 PM CST (11/22)
Length of Visible Light 10h 14m
Length of Day
9h 06m
Waning Crescent, 9% of the Moon is Illuminated
Nov 22
Waning Crescent
Nov 25
New
Dec 2
First Quarter
Dec 10
Full
Dec 17
Last Quarter

Hourly Weather History & Observations

Time (CST) Temp. Windchill Dew Point Humidity Pressure Visibility Wind Dir Wind Speed Gust Speed Precip Events Conditions
12:13 AM 30.2 °F 20.2 °F 30.2 °F 100% 30.13 in 4.0 mi SSE 12.7 mph - N/A   Overcast
12:33 AM 28.4 °F 16.2 °F 28.4 °F 100% 30.14 in 5.0 mi SSE 17.3 mph - N/A   Overcast
12:53 AM 30.2 °F 18.9 °F 28.4 °F 93% 30.13 in 4.0 mi SSE 16.1 mph - N/A   Overcast
1:14 AM 30.2 °F 19.8 °F 30.2 °F 100% 30.13 in 4.0 mi SSE 13.8 mph - N/A   Overcast
1:33 AM 30.2 °F 20.8 °F 30.2 °F 100% 30.12 in 5.0 mi South 11.5 mph - N/A   Overcast
1:54 AM 30.2 °F 21.9 °F 30.2 °F 100% 30.12 in 5.0 mi South 9.2 mph - N/A   Overcast
2:13 AM 32.0 °F 23.0 °F 30.2 °F 93% 30.12 in 7.0 mi SSE 11.5 mph - N/A   Overcast
2:34 AM 32.0 °F 24.2 °F 30.2 °F 93% 30.11 in 7.0 mi SE 9.2 mph - N/A   Overcast
2:53 AM 32.0 °F 25.6 °F 30.2 °F 93% 30.11 in 7.0 mi SE 6.9 mph - N/A   Overcast
3:13 AM 32.0 °F 24.2 °F 30.2 °F 93% 30.10 in 7.0 mi SE 9.2 mph - N/A   Overcast
3:33 AM 32.0 °F 24.2 °F 30.2 °F 93% 30.09 in 7.0 mi SE 9.2 mph - N/A   Overcast
3:53 AM 32.0 °F 23.0 °F 30.2 °F 93% 30.07 in 7.0 mi SE 11.5 mph - N/A   Overcast
4:13 AM 32.0 °F 24.2 °F 30.2 °F 93% 30.07 in 7.0 mi SSE 9.2 mph - N/A   Overcast
4:33 AM 32.0 °F 25.6 °F 32.0 °F 100% 30.07 in 5.0 mi SSE 6.9 mph - N/A   Overcast
4:53 AM 32.0 °F 24.2 °F 32.0 °F 100% 30.06 in 5.0 mi SSE 9.2 mph - N/A   Overcast
5:13 AM 32.0 °F 24.8 °F 32.0 °F 100% 30.07 in 4.0 mi South 8.1 mph - N/A   Overcast
5:53 AM 32.0 °F 24.2 °F 32.0 °F 100% 30.06 in 3.0 mi South 9.2 mph - N/A   Overcast
6:14 AM 32.0 °F 24.2 °F 32.0 °F 100% 30.05 in 2.5 mi South 9.2 mph - N/A   Overcast
6:33 AM 32.0 °F 23.6 °F 32.0 °F 100% 30.04 in 3.0 mi South 10.4 mph - N/A   Overcast
6:53 AM 32.0 °F 24.2 °F 32.0 °F 100% 30.04 in 3.0 mi South 9.2 mph - N/A   Overcast
7:14 AM 32.0 °F 24.2 °F 32.0 °F 100% 30.04 in 3.0 mi South 9.2 mph - N/A   Overcast
7:33 AM 32.0 °F 27.5 °F 32.0 °F 100% 30.04 in 3.0 mi SSW 4.6 mph - N/A   Overcast
7:53 AM 33.8 °F 26.4 °F 32.0 °F 93% 30.03 in 2.5 mi SSW 9.2 mph - N/A   Overcast
8:14 AM 33.8 °F 27.0 °F 32.0 °F 93% 30.03 in 3.0 mi South 8.1 mph - N/A   Overcast
8:33 AM 33.8 °F 27.0 °F 32.0 °F 93% 30.03 in 3.0 mi South 8.1 mph - N/A   Overcast
9:13 AM 33.8 °F 24.8 °F 32.0 °F 93% 30.02 in 4.0 mi SSW 12.7 mph - N/A   Overcast
9:33 AM 33.8 °F 25.8 °F 32.0 °F 93% 30.02 in 4.0 mi SSW 10.4 mph - N/A   Overcast
9:54 AM 33.8 °F 25.3 °F 32.0 °F 93% 30.01 in 4.0 mi South 11.5 mph 17.3 mph N/A   Overcast
10:13 AM 33.8 °F 26.4 °F 32.0 °F 93% 30.01 in 4.0 mi SSW 9.2 mph 16.1 mph N/A   Overcast
10:33 AM 33.8 °F 25.8 °F 32.0 °F 93% 30.01 in 4.0 mi SSW 10.4 mph - N/A   Overcast
10:54 AM 33.8 °F 26.4 °F 32.0 °F 93% 30.02 in 4.0 mi SSW 9.2 mph - N/A   Overcast
11:33 AM 35.6 °F 27.5 °F 32.0 °F 87% 30.00 in 5.0 mi South 11.5 mph - N/A   Overcast
11:53 AM 35.6 °F 27.5 °F 32.0 °F 87% 30.00 in 5.0 mi South 11.5 mph - N/A   Overcast
12:14 PM 35.6 °F 27.5 °F 32.0 °F 87% 30.00 in 5.0 mi SSW 11.5 mph - N/A   Overcast
12:33 PM 35.6 °F 28.0 °F 32.0 °F 87% 30.00 in 5.0 mi SSW 10.4 mph - N/A   Overcast
12:53 PM 35.6 °F 28.0 °F 32.0 °F 87% 30.00 in 5.0 mi SSW 10.4 mph - N/A   Overcast
1:33 PM 35.6 °F 28.6 °F 32.0 °F 87% 29.99 in 5.0 mi South 9.2 mph - N/A   Overcast
1:53 PM 35.6 °F 28.6 °F 32.0 °F 87% 29.98 in 5.0 mi South 9.2 mph - N/A   Overcast
2:13 PM 35.6 °F 27.5 °F 32.0 °F 87% 29.98 in 4.0 mi SSW 11.5 mph - N/A   Overcast
2:33 PM 35.6 °F 28.6 °F 32.0 °F 87% 29.98 in 5.0 mi SSW 9.2 mph 16.1 mph N/A   Overcast
2:53 PM 35.6 °F 28.6 °F 32.0 °F 87% 29.98 in 5.0 mi South 9.2 mph - N/A   Overcast
3:14 PM 35.6 °F 29.2 °F 32.0 °F 87% 29.98 in 5.0 mi South 8.1 mph - N/A   Overcast
3:33 PM 35.6 °F 28.6 °F 32.0 °F 87% 29.98 in 5.0 mi SSW 9.2 mph - N/A   Overcast
3:53 PM 35.6 °F 28.0 °F 32.0 °F 87% 29.98 in 5.0 mi South 10.4 mph - N/A   Overcast
4:13 PM 35.6 °F 29.9 °F 32.0 °F 87% 29.98 in 5.0 mi South 6.9 mph - N/A   Overcast
4:33 PM 35.6 °F 29.2 °F 32.0 °F 87% 29.99 in 5.0 mi South 8.1 mph - N/A   Overcast
4:53 PM 33.8 °F 25.8 °F 32.0 °F 93% 29.98 in 5.0 mi SSW 10.4 mph - N/A   Overcast
5:33 PM 33.8 °F 27.0 °F 32.0 °F 93% 29.99 in 5.0 mi South 8.1 mph - N/A   Overcast
5:54 PM 33.8 °F 27.0 °F 32.0 °F 93% 29.98 in 5.0 mi South 8.1 mph - N/A   Overcast
6:14 PM 33.8 °F 27.7 °F 32.0 °F 93% 29.98 in 4.0 mi South 6.9 mph - N/A   Overcast
6:33 PM 33.8 °F 25.8 °F 32.0 °F 93% 29.98 in 4.0 mi South 10.4 mph - N/A   Overcast
6:53 PM 33.8 °F 27.0 °F 32.0 °F 93% 29.99 in 4.0 mi South 8.1 mph - N/A   Overcast
7:13 PM 33.8 °F 26.4 °F 32.0 °F 93% 29.99 in 4.0 mi South 9.2 mph - N/A   Overcast
7:33 PM 33.8 °F 25.3 °F 32.0 °F 93% 29.99 in 4.0 mi South 11.5 mph - N/A   Overcast
8:13 PM 33.8 °F 26.4 °F 32.0 °F 93% 30.00 in 3.0 mi South 9.2 mph - N/A   Overcast
9:13 PM 32.0 °F 24.8 °F 32.0 °F 100% 30.02 in 2.5 mi South 8.1 mph - N/A   Overcast
9:33 PM 33.8 °F 26.4 °F 32.0 °F 93% 30.01 in 3.0 mi South 9.2 mph - N/A   Overcast
9:54 PM 33.8 °F 27.0 °F 32.0 °F 93% 30.01 in 3.0 mi South 8.1 mph - N/A   Overcast
10:13 PM 32.0 °F 25.6 °F 32.0 °F 100% 30.02 in 3.0 mi South 6.9 mph - N/A   Overcast
10:33 PM 32.0 °F 25.6 °F 32.0 °F 100% 30.01 in 3.0 mi SSE 6.9 mph - N/A   Overcast
10:53 PM 32.0 °F 25.6 °F 32.0 °F 100% 30.01 in 3.0 mi South 6.9 mph - N/A   Mist
11:13 PM 32.0 °F 25.6 °F 32.0 °F 100% 30.00 in 3.0 mi SSE 6.9 mph - N/A   Mist
11:33 PM 32.0 °F 24.8 °F 32.0 °F 100% 30.00 in 3.0 mi SSE 8.1 mph - N/A   Mist
11:54 PM 32.0 °F 25.6 °F 32.0 °F 100% 30.00 in 3.0 mi South 6.9 mph - N/A   Mist